User: anonymous   Login
Location: Borkenes
(68.7830°N, 16.1830°E)
Time: 16:41:15
(UTC+01:00)
Language:

Vanguard 1 Rocket - Orbit

View from above orbital plane
View from above orbital plane
View from above satellite
View from above satellite

Ground track
Ground track

The orbit data is extracted from the following two-line orbital elements,

1    16U 58002A   19347.63845624 -.00000137  00000-0 -19337-3 0  9993
2    16  34.2676 334.0097 2028052 170.1399 194.6094 10.48727373439216
Epoch (UTC): 13 December 2019 15:19:22
Eccentricity: 0.2028052
inclination: 34.2676°
perigee height: 650 km
apogee height: 4226 km
right ascension of ascending node: 334.0097°
argument of perigee: 170.1399°
revolutions per day: 10.48727373
mean anomaly at epoch: 194.6094°
orbit number at epoch: 43921

The dashed part of the orbit path shows where the satellite is in the earth's shadow,  

DLR